Terminal Aerodrome Forecast
Issued by NWS Wakefield, VA

Home | Current Version | Previous Version | Text Only | Print | Product List | Glossary On
Versions: 1 2 3 4 5 6 7 8 9 10 11 12 13 14 15 16 17 18 19 20 21 22
000
FTUS41 KAKQ 142300
TAFECG
TAF
KECG 142322Z 1500/1524 06006KT P6SM BKN070
     FM151300 07005KT P6SM SCT040 BKN050=

USA.gov is the U.S. government's official web portal to all federal, state and local government web resources and services.